Starlink 30932

operational
NORAD ID: 58523 Int'l Des: 2023-191 Owner: SPXS Country: US Constellation: starlink
LEOCIRCULAR

About Starlink 30932

Description loading...

Live Position

Loading 3D Globe...

Upcoming Passes

Altitude History

Altitude vs Time

uPlot chart will show altitude changes over time

Two-Line Element Set

1 58523U 23191R 25303.80649186 .00000996 00000-0 88758-4 0 9998
2 58523 43.0039 91.7196 0001226 267.4395 92.6307 15.02541587105858
Epoch: Oct 30, 2025 • Age: 8 hours

Current Status

Altitude 562.9 km
Velocity 7.59 km/s
Sub-Earth Point 42.47°N, 96.09°E
Launch Date Dec 7, 2023
Age 1.8 years
Type internet

Technical Details

Classification Payload
Mass 730.00 kg
Dry Mass 700.00 kg
Total Mass 730.00 kg
Length 0.30 m
Diameter 4.10 m
Span 29.00 m
Shape Box + pan
Manufacturer SPXS
Bus Type Starlink V2M
Phase Status In Orbit
Owner/State SPXS/US

Large Constellations

Loading constellations...